Location: *
(50.6089°N, 2.2719°E)
Time: 00:30:18
(UTC+00:00)

CSL-04 Rocket - Pass Details

Date: 18 October 2019
Orbit: 805 x 861 km, 99.0° (Epoch: 13 November)

Event Time Altitude Azimuth Distance (km) Brightness Sun altitude
Rises 17:59:15 0° 159° (SSE) 3,422 6.7 -11.2°
Reaches altitude 10° 18:01:37 10° 159° (SSE) 2,486 5.9 -11.5°
Maximum altitude 18:07:09 82° 73° (ENE) 866 3.7 -12.4°
Drops below altitude 10° 18:12:40 10° 346° (NNW) 2,475 6.3 -13.3°
Sets 18:15:01 0° 346° (NNW) 3,406 7.1 -13.7°
